834  
ASHW40 PHFO 300443  
RWRHI  
 
WEATHER ROUNDUP FOR HAWAII  
NATIONAL WEATHER SERVICE HONOLULU HI  
600 PM HST SUN MAY 29 2016  
 
THIS IS AN AUTOMATED REPORT THAT HAS NOT BEEN QUALITY CONTROLLED.  
 
NOTE..."FAIR" INDICATES FEW OR NO CLOUDS BELOW 12,000 FEET WITH NO  
SIGNIFICANT WEATHER AND/OR S TO VISIBILITY
.  
 
* - THESE SITES REPORT LIMITED FIELDS  
 
HIZ001>004-300500-  
KAUAI-NIIHAU-  
 
CITY SKY/WX TMP DP RH WIND PRES REMARKS
 
LIHUE APT CLOUDY 73 71 93 W6 30.02R  
PORT ALLEN* N/A 79 N/A N/A E13 N/A  
POIPU* N/A 73 N/A N/A N1 N/A  
PRINCEVILLE* N/A 79 N/A N/A NE3 N/A  
KOKOLE POINT* NOT AVBL  
MOLOAA DAIRY* N/A 81 70 69 NE1G8 N/A  
WAIMEA HTS* N/A 79 66 65 S3G9 N/A  
PUU OPAE* N/A 70 63 78 W2G10 N/A  
PUU LUA* NOT AVBL  
MAKAHA RIDGE* N/A 73 64 73 NE3G12 N/A  

 
 
HIZ005>011-300500-  
OAHU-  
 
CITY SKY/WX TMP DP RH WIND PRES REMARKS
 
HONOLULU HVY RAIN 73 72 94 NE13 30.00R FOG  
KALAELOA PTSUNNY 81 68 64 SW6 29.99S  
KANEOHE MCB CLOUDY 79 66 64 NE7 29.97R  
WHEELER FIELD PTSUNNY 78 68 71 E2 30.00R  
BELLOWS* N/A N/A N/A N/A NE7 N/A  
KAHUKU* N/A N/A N/A N/A VRB3G9 N/A  
WHEELER* N/A N/A N/A N/A S5 N/A  
WAIANAE HARBOR N/A N/A N/A N/A SE12 N/A  
DILLINGHAM* N/A 84 70 61 MISG N/A  
KAHUKU TRN* N/A 79 66 65 CALM N/A  
KAWAILOA* N/A 75 63 64 NE7G14 N/A  
KII* N/A 81 68 65 NE7 N/A  
MAKUA RANGE* N/A 79 64 61 E10G18 N/A  
OAHU FOREST NW NOT AVBL  
SCHOFIELD BRK* N/A 82 68 61 MISG N/A  
SCHOFIELD S* NOT AVBL  
WAIANAE VLY* NOT AVBL  
KUAOKALA* NOT AVBL  
HONOULIUULI* NOT AVBL  
MOKUOLOE IS* NOT AVBL  
PALEHUA* NOT AVBL  
WAIAWA PHB* NOT AVBL  

 
 
HIZ012>013-300500-  
MOLOKAI-  
 
CITY SKY/WX TMP DP RH WIND PRES REMARKS
 
MOLOKAI AIRPT SUNNY 79 67 66 N9 30.00R  
KALAUPAPA NOT AVBL  
MAKAPULAPAI* N/A 81 68 65 E7 N/A  
MOLOKAI 1* NOT AVBL  
PUU ALII* N/A 67 63 87 S1G7 N/A  

 
 
HIZ016-300500-  
KAHOOLAWE-  
 
CITY SKY/WX TMP DP RH WIND PRES REMARKS
 
KAHOOLAWE* N/A 73 N/A N/A E1 N/A  
HAKIOAWA* N/A 88 79 74 MISG 30.43R HX 103  
HONOKANAIA* N/A 83 66 55 E8G14 29.92R  
KANELOA* N/A 77 66 69 SE6G12 30.05R  
KEALIALALO* NOT AVBL  
LUA MAKIKA* NOT AVBL  

 
 
HIZ014>015-300500-  
LANAI-  
 
CITY SKY/WX TMP DP RH WIND PRES REMARKS
 
LANAI CITY LGT RAIN 70 68 94 E3 30.06R  
LANAI 1* NOT AVBL  

 
 
HIZ017>028-300500-  
MAUI-  
 
CITY SKY/WX TMP DP RH WIND PRES REMARKS
 
KAHULUI MOSUNNY 83 61 47 N6 29.98R  
KAPALUA-W MAUI MOSUNNY 81 64 57 VRB5 30.00  
HANA AIRPORT NOT AVBL  
HANA* N/A 79 N/A N/A E5 N/A  
HALEAKALA SUMM N/A 46 32 57 NW13 N/A  
MAALAEA BAY* N/A 81 N/A N/A N5 N/A  
HALEAKALA* NOT AVBL  
KAUPO GAP* N/A N/A N/A N/A SW2G8 N/A  
KULA 1* N/A 55 52 90 NW2G9 N/A  

 
 
HIZ023>026-300500-  
BIG ISLAND OF HAWAII COAST AND LOWER SLOPES-  
 
CITY SKY/WX TMP DP RH WIND PRES REMARKS
 
KAILUA KONA CLOUDY 81 70 69 SE10 29.98R  
HILO PTSUNNY 79 67 66 SE9 29.99R  
HONOKAA* N/A 77 N/A N/A VRB1 N/A  
KAWAIHAE MWT* N/A 82 N/A N/A W7 N/A  
KAWAIHAE* N/A 81 N/A N/A W7 29.98S  
SOUTH POINT* N/A 73 N/A N/A NW6 N/A  
UPOLU AIRPORT* N/A N/A N/A N/A NE12 N/A  
KAMUELA* NOT AVBL  
HAKALAU* N/A 55 55 98 E3 N/A  
KALOKO-HONOKO* N/A 79 66 65 CALM 29.98R  
PALI 2* N/A N/A N/A N/A SW3 N/A  
KEALAKOMO* N/A 79 64 61 SE2 N/A  
KAUPULEHU* NOT AVBL  
KAPAPALA* N/A 67 65 93 VRB2 N/A  
LOWER KAHUKU* N/A 63 -40 1 VRB1 N/A  
PUHE CS* N/A 82 66 57 W3G9 N/A  
PUHO CS* N/A 75 65 70 NE2 N/A  
PTA KEAMUKU* N/A 64 61 88 CALM N/A  
WAIKOLOA* NOT AVBL  

 
 
HIZ027>028-300500-  
BIG ISLAND OF HAWAII INTERIOR AND SUMMMITS-  
 
CITY SKY/WX TMP DP RH WIND PRES REMARKS
 
BRADSHAW FIELD MOSUNNY 62 51 69 W12G22 30.28S  
MK VISITOR CEN N/A 46 45 93 N7 N/A  
MAUNA KEA* N/A 41 9 26 N20 N/A  
MAUNA LOA* N/A 45 39 81 MISG N/A  
MAUNA LOA 1* NOT AVBL  
PTA KIPUKA* N/A 72 66 83 N3G14 N/A  
PTA RANGE 17* N/A 63 55 77 NW9G15 N/A  
PTA WEST* N/A N/A N/A N/A W10G17 N/A  
NENE CABIN* N/A 55 54 94 SE2 N/A  
AHUMOA* N/A 54 54 100 N6G12 N/A  
PTA PORTABLE* NOT AVBL  
PUU MALI* N/A 55 55 100 W8G15 N/A  

 
 
HIC003-300500-  
NORTHWEST ISLANDS-  
 
CITY SKY/WX TMP DP RH WIND PRES REMARKS
 
MIDWAY ISLAND SUNNY 75 66 73 E7 30.13S  
MIDWAY NOS* N/A 73 N/A N/A MISG 30.12S  
FRENCH FRIGATE NOT AVBL  

 
 
PHZ110>124-180-300500-  
BUOY REPORTS  
 
STATION/POSITION TIME TEMP WIND PRES WAVE SWELL
 
AIR SEA DIR/SP/G HT/PER HT/DIR  
(UTC) (F) (DEG/KT/KT) (MB) (FT/S) (FT/D)  
BUOY 51001 0400 79 80 50/ 12/ 16 1015.9S  
BUOY 51101 0350 75 80 50/ 12/ 14 1017.0S 5/12 5/320  
BUOY 51100 NOT AVBL  
BUOY 51002 0350 79 80 80/ 8/ 8 1014.7R 5/ 9 5/100  
BUOY 51003 0350 80 82 60/ 4/ 6 1015.0R 4/15 5/130  
BUOY 51004 0350 78 79 80/ 10/ 12 1014.7R 6/ 8 5/ 90  
BARBERS PT BUOY NOT AVBL  
WAIMEA BAY BUOY 0404 79 N/A 2/13 2/310  
KAILUA BAY BUOY 0411 79 N/A 3/ 8 2/140  
LANAI BUOY 0415 81 N/A 3/13 2/190  
BARBERS PT 2 0403 80 N/A 3/13 3/220  
PAUWELA MAUI 0409 79 N/A 4/ 8 2/ 70  
HILO 0412 80 N/A 5/ 8 2/130  
KANEOHE BAY BUOY 0406 79 N/A 2/ 8  
HANALEI KAUAI NOT AVBL  
KAHULUI HARBOR 0400 80 80 360/ 3/ 6 1015.1  
HONOLULU HARBOR 0400 74 80 60/ 2/ 5 1016.4  
KILO NALU NOT AVBL  
HILO HARBOR 0400 82 79 130/ 8/ 11 1015.0  
MOKUOLOE 0300 79 82 20/ 6/ 7 1015.3R  
NAWILIWILI 0400 74 81 270/ 5/ 6 1015.9  
WHOTS BUOY NOT AVBL  
BUOY 51028 NOT AVBL  

 
   
.....................KEY.....................................
 
 
SKY/WX - SKY CONDITIONS/PRESENT WEATHER  
TMP - TEMPERATURE IN FAHRENHEIT  
DWPT - DEWPOINT IN FAHRENHEIT  
RH - RELATIVE HUMIDITY IN PERCENT  
WIND - DIRECTION AND SPEED /MPH FOR ISLANDS...KTS FOR BUOYS/  
PRES - MEAN SEA LEVEL PRESSURE IN INCHES OF HG  
VSB - VISIBILITY IN MILES  
HX - HEAT INDEX  
WCI - WIND CHILL INDEX  
VRB - VARIABLE WIND DIRECTION  
N/A - NOT AVAILABLE  
 
 
CLICK HERE TO GO TO PREVIOUS BULLETINS.

The Nexlab HI Page Main Text Page